PBO Station Position Time Series. Reference Frame : NAM14
Format Version,1.1.1
4-character ID,P241
Station name,RodeoFlat_CN2007
Begin Date, 2007-05-19
End Date, 2023-06-26
Release Date, 2023-06-27
Reference position, 37.2130111292 North Latitude, -121.5742607049 East Longitude, 834.23057 meters elevation,
Date, North (mm), East (mm), Vertical (mm), North Std. Deviation (mm), East Std. Deviation (mm),              Vertical Std. Deviation (mm), Quality,
2007-05-19,0.00, 0.00, 0.00, 1.99, 1.60, 7.19, repro,
2007-05-20,-0.39, -0.05, -3.07, 2.02, 1.64, 7.38, repro,
2007-05-21,1.17, 0.73, -0.76, 1.97, 1.61, 7.24, repro,
2007-05-22,0.24, -0.15, -3.88, 1.98, 1.61, 7.26, repro,
2007-05-23,0.12, -0.53, -1.42, 2.12, 1.73, 7.78, repro,
2007-05-24,0.08, -0.56, -3.83, 2.12, 1.74, 7.77, repro,
2007-05-25,0.01, -0.20, -4.29, 1.99, 1.60, 7.22, repro,
2007-05-26,-0.94, 0.42, -1.13, 1.99, 1.61, 7.27, repro,
2007-05-27,-0.30, -0.65, -4.51, 2.00, 1.63, 7.29, repro,
2007-05-28,-1.66, 0.46, -4.97, 1.99, 1.60, 7.20, repro,
2007-05-29,-0.22, -0.62, -4.73, 1.98, 1.58, 7.15, repro,
2007-05-30,-0.80, -0.54, -8.92, 2.03, 1.59, 7.30, repro,
2007-05-31,-0.54, -0.12, -7.40, 2.01, 1.62, 7.30, repro,
2007-06-01,-1.56, -1.18, -1.01, 1.95, 1.58, 7.11, repro,
2007-06-02,-0.39, -0.43, -2.34, 1.94, 1.57, 7.09, repro,
2007-06-03,-0.20, -0.14, -1.46, 1.96, 1.58, 7.18, repro,
2007-06-04,-0.12, 0.61, 0.99, 1.97, 1.59, 7.20, repro,
2007-06-05,-0.31, -1.11, 0.29, 1.99, 1.60, 7.29, repro,
2007-06-06,0.20, -1.09, 1.50, 1.95, 1.58, 7.14, repro,
2007-06-07,0.92, -0.52, 1.39, 1.94, 1.58, 7.13, repro,
2007-06-08,0.63, -0.30, -6.25, 1.93, 1.58, 7.07, repro,
2007-06-09,0.02, -0.30, -5.59, 1.99, 1.63, 7.33, repro,
2007-06-10,-1.31, -1.69, 2.05, 1.98, 1.60, 7.27, repro,
2007-06-11,0.61, -0.70, 1.29, 1.99, 1.68, 7.34, repro,
2007-06-12,0.37, -1.30, 0.10, 1.99, 1.67, 7.31, repro,
2007-06-13,0.75, -0.86, -0.58, 1.98, 1.63, 7.23, repro,
2007-06-14,0.80, -1.13, -4.85, 2.00, 1.64, 7.27, repro,
2007-06-15,1.24, 0.21, -7.91, 1.96, 1.59, 7.19, repro,
2007-06-16,0.19, -0.75, -2.20, 1.95, 1.57, 7.10, repro,
2007-06-17,0.50, 0.12, -5.04, 1.95, 1.58, 7.13, repro,
2007-06-18,-0.05, -0.25, 1.47, 1.93, 1.57, 7.07, repro,
2007-06-19,-0.19, -0.07, -7.62, 1.94, 1.58, 7.12, repro,
2007-06-20,0.14, 0.48, -7.13, 1.96, 1.58, 7.19, repro,
2007-06-21,-0.59, 0.23, -2.22, 1.96, 1.57, 7.13, repro,
2007-06-22,0.49, -0.02, -3.96, 1.95, 1.57, 7.13, repro,
2007-06-23,0.50, -0.57, -5.76, 1.94, 1.58, 7.17, repro,
2007-06-24,0.24, 0.19, -3.49, 1.97, 1.62, 7.35, repro,
2007-06-25,0.06, 0.19, -5.48, 1.95, 1.58, 7.22, repro,
2007-06-26,0.20, 0.48, -10.22, 1.96, 1.58, 7.19, repro,
2007-06-27,0.42, 0.01, -10.52, 1.95, 1.57, 7.14, repro,
2007-06-28,0.45, 1.29, -5.05, 1.98, 1.62, 7.31, repro,
2007-06-29,-0.83, 1.64, -3.07, 1.94, 1.58, 7.15, repro,
2007-06-30,1.12, 2.09, -8.97, 1.94, 1.57, 7.14, repro,
2007-07-01,1.07, 0.70, -3.60, 1.96, 1.59, 7.24, repro,
2007-07-02,0.45, 0.31, -2.49, 1.95, 1.57, 7.16, repro,
2007-07-03,0.76, 0.27, -6.59, 1.96, 1.59, 7.26, repro,
2007-07-04,-0.11, 0.90, -4.33, 1.95, 1.59, 7.25, repro,
2007-07-05,-0.31, 0.09, -6.75, 1.94, 1.59, 7.17, repro,
2007-07-06,1.30, 1.01, -6.07, 1.95, 1.58, 7.18, repro,
2007-07-07,0.22, -0.04, -3.19, 1.96, 1.58, 7.19, repro,
2007-07-08,-0.84, 0.06, -1.50, 1.96, 1.58, 7.21, repro,
2007-07-09,-0.26, 0.46, -3.00, 1.99, 1.66, 7.48, repro,
2007-07-10,0.63, -0.97, -4.54, 1.95, 1.58, 7.16, repro,
2007-07-11,-1.43, -0.84, -9.53, 1.94, 1.57, 7.10, repro,
2007-07-12,0.72, 0.14, -6.66, 1.99, 1.65, 7.34, repro,
2007-07-13,-0.39, 1.00, -5.41, 1.99, 1.64, 7.38, repro,
2007-07-14,0.70, 0.74, -5.31, 1.95, 1.58, 7.16, repro,
2007-07-15,1.17, 0.50, -2.92, 1.99, 1.65, 7.39, repro,
2007-07-16,1.18, 1.05, 1.13, 1.97, 1.63, 7.25, repro,
2007-07-17,-1.18, 1.96, -2.72, 1.94, 1.59, 7.17, repro,
2007-07-18,0.69, 0.88, -3.43, 1.99, 1.64, 7.31, repro,
2007-07-19,-0.27, 0.25, -2.56, 1.95, 1.60, 7.22, repro,
2007-07-20,1.31, 0.67, -0.96, 1.99, 1.65, 7.42, repro,
2007-07-21,0.16, 1.46, -3.07, 2.00, 1.65, 7.40, repro,
2007-07-22,1.19, 1.33, 0.06, 1.99, 1.64, 7.34, repro,
2007-07-23,0.29, 1.20, 0.58, 2.03, 1.71, 7.61, repro,
2007-07-24,0.67, -1.01, 0.82, 1.99, 1.63, 7.40, repro,
2007-07-25,0.93, 2.01, -3.25, 1.99, 1.64, 7.42, repro,
2007-07-26,-0.15, 0.85, -2.53, 1.96, 1.59, 7.19, repro,
2007-07-27,1.33, 2.11, -3.88, 1.99, 1.65, 7.38, repro,
2007-07-28,-0.43, 1.06, -2.48, 1.99, 1.65, 7.38, repro,
2007-07-29,-0.24, 0.23, -1.20, 1.99, 1.66, 7.38, repro,
2007-07-30,-0.01, 1.61, -0.83, 1.96, 1.61, 7.26, repro,
2007-07-31,0.49, 1.57, -5.22, 1.95, 1.59, 7.18, repro,
2007-08-01,0.44, 2.37, -0.42, 1.94, 1.58, 7.12, repro,
2007-08-02,0.15, 0.92, 0.94, 2.12, 1.74, 7.78, repro,
2007-08-03,1.76, 1.12, -2.76, 1.95, 1.58, 7.15, repro,
2007-08-04,0.86, 0.55, 3.03, 1.95, 1.60, 7.18, repro,
2007-08-05,0.47, 1.39, 1.72, 1.99, 1.60, 7.33, repro,
2007-08-06,1.33, 1.90, 5.34, 1.97, 1.63, 7.33, repro,
2007-08-07,0.44, 1.87, 0.03, 1.96, 1.61, 7.26, repro,
2007-08-08,0.54, 1.64, -3.43, 1.95, 1.58, 7.13, repro,
2007-08-09,0.88, 0.85, 1.97, 1.94, 1.59, 7.14, repro,
2007-08-10,1.20, 1.28, 4.51, 1.95, 1.59, 7.17, repro,
2007-08-11,1.19, 2.22, 0.15, 1.93, 1.58, 7.12, repro,
2007-08-12,0.39, 1.10, 4.98, 1.94, 1.58, 7.13, repro,
2007-08-13,0.08, 1.40, -0.20, 1.95, 1.58, 7.10, repro,
2007-08-14,1.21, 1.34, -5.87, 2.06, 1.69, 7.48, repro,
2007-08-15,1.72, 1.83, -0.49, 2.06, 1.70, 7.53, repro,
2007-08-16,1.90, 1.27, 1.81, 2.02, 1.65, 7.49, repro,
2007-08-17,1.44, 0.98, -0.59, 2.02, 1.64, 7.40, repro,
2007-08-18,0.30, 1.55, 0.99, 2.06, 1.68, 7.72, repro,
2007-08-19,0.16, 1.31, 0.66, 2.06, 1.68, 7.67, repro,
2007-08-20,0.42, 1.11, -1.84, 2.03, 1.64, 7.47, repro,
2007-08-21,0.93, 0.96, -0.81, 2.07, 1.65, 7.56, repro,
2007-08-22,0.70, 0.79, -0.16, 2.03, 1.63, 7.41, repro,
2007-08-23,0.22, 1.40, 6.24, 1.99, 1.59, 7.22, repro,
2007-08-24,0.57, 1.46, 3.76, 2.11, 1.68, 7.65, repro,
2007-08-25,0.81, 0.77, -0.64, 2.04, 1.66, 7.51, repro,
2007-08-26,0.80, 1.40, -0.33, 2.07, 1.70, 7.67, repro,
2007-08-27,0.50, 0.78, 0.95, 2.06, 1.70, 7.68, repro,
2007-08-28,1.37, 1.00, 3.84, 2.04, 1.67, 7.53, repro,
2007-08-29,1.06, 1.49, -3.85, 2.04, 1.66, 7.46, repro,
2007-08-30,0.34, 0.17, 1.31, 2.03, 1.66, 7.51, repro,
2007-08-31,1.28, 1.27, 2.41, 2.04, 1.67, 7.54, repro,
2007-09-01,1.22, 1.39, 0.71, 2.05, 1.67, 7.58, repro,
2007-09-02,1.32, 1.06, 0.31, 2.04, 1.67, 7.57, repro,
2007-09-03,0.39, 1.91, -0.15, 2.03, 1.66, 7.47, repro,
2007-09-04,0.63, 2.36, -2.82, 2.02, 1.67, 7.50, repro,
2007-09-05,-0.00, 0.10, 7.89, 2.03, 1.66, 7.49, repro,
2007-09-06,1.01, 1.63, 3.43, 2.04, 1.66, 7.51, repro,
2007-09-07,0.45, 0.88, 2.36, 2.04, 1.67, 7.60, repro,
2007-09-08,0.41, 1.66, -0.84, 2.11, 1.75, 7.92, repro,
2007-09-09,-0.52, 0.73, 1.68, 2.10, 1.74, 7.83, repro,
2007-09-10,0.48, 0.98, 1.27, 2.10, 1.70, 7.72, repro,
2007-09-11,-0.55, 0.81, -0.68, 2.06, 1.67, 7.54, repro,
2007-09-12,1.00, 0.86, -4.26, 2.09, 1.71, 7.77, repro,
2007-09-13,0.77, 1.52, -1.96, 2.18, 1.73, 8.00, repro,
2007-09-14,0.56, 0.49, -3.72, 2.09, 1.71, 7.73, repro,
2007-09-15,-0.12, -0.00, 4.30, 2.13, 1.68, 7.81, repro,
2007-09-16,-0.13, 0.62, 1.50, 2.13, 1.68, 7.71, repro,
2007-09-17,0.27, -0.12, 5.16, 2.14, 1.75, 7.94, repro,
2007-09-18,0.33, 0.42, 2.59, 2.06, 1.68, 7.60, repro,
2007-09-19,0.41, 0.33, -1.18, 1.96, 1.60, 7.22, repro,
2007-09-20,0.47, -0.27, -1.18, 1.97, 1.58, 7.15, repro,
2007-09-21,0.67, -0.05, -0.71, 2.08, 1.66, 7.59, repro,
2007-09-22,-1.24, 0.46, 4.38, 2.05, 1.63, 7.44, repro,
2007-09-23,0.22, 1.17, -1.85, 2.08, 1.70, 7.69, repro,
2007-09-24,-0.44, 1.10, 2.86, 2.08, 1.67, 7.62, repro,
2007-09-25,-0.25, 0.67, -3.56, 2.06, 1.66, 7.59, repro,
2007-09-26,1.69, 0.30, 7.69, 2.00, 1.59, 7.26, repro,
2007-09-27,0.33, 0.60, 8.61, 2.03, 1.63, 7.46, repro,
2007-09-28,0.36, 1.63, 0.54, 2.00, 1.64, 7.47, repro,
2007-09-29,-0.00, 1.04, 4.53, 2.03, 1.69, 7.53, repro,
2007-09-30,0.14, 1.22, 2.01, 2.03, 1.69, 7.53, repro,
2007-10-01,0.27, 0.20, 2.99, 2.07, 1.75, 7.64, repro,
2007-10-02,-0.01, 1.91, 4.94, 2.08, 1.73, 7.75, repro,
2007-10-03,1.84, 1.14, 4.34, 2.12, 1.75, 7.90, repro,
2007-10-04,-0.09, 0.75, 8.05, 2.11, 1.68, 7.85, repro,
2007-10-05,-0.62, 0.46, 7.29, 2.05, 1.73, 7.75, repro,
2007-10-06,-1.51, -0.01, 8.96, 2.07, 1.70, 7.64, repro,
2007-10-07,0.05, 1.95, 3.93, 2.07, 1.70, 7.65, repro,
2007-10-08,-0.10, 1.86, 6.44, 2.25, 1.79, 8.47, repro,
2007-10-09,-0.35, 0.96, 3.93, 2.19, 1.86, 8.28, repro,
2007-10-10,-0.72, 3.12, -1.72, 2.18, 1.75, 8.09, repro,
2007-10-11,-0.22, 1.46, 0.88, 2.01, 1.68, 7.42, repro,
2007-10-12,0.11, 0.92, 5.15, 2.06, 1.74, 7.81, repro,
2007-10-13,-0.76, 1.01, 6.77, 1.97, 1.63, 7.35, repro,
2007-10-14,0.17, 1.23, 2.67, 1.97, 1.62, 7.36, repro,
2007-10-15,-0.75, 1.26, 2.90, 2.02, 1.70, 7.58, repro,
2007-10-16,-0.55, 0.04, 8.61, 1.99, 1.64, 7.42, repro,
2007-10-17,-0.76, 1.60, 7.20, 1.97, 1.62, 7.31, repro,
2007-10-18,0.71, 2.03, 5.38, 1.97, 1.63, 7.32, repro,
2007-10-19,-0.44, 1.42, 5.30, 1.97, 1.62, 7.37, repro,
2007-10-20,0.49, 2.22, 3.87, 2.02, 1.67, 7.60, repro,
2007-10-21,-0.46, 1.38, 6.72, 1.98, 1.64, 7.43, repro,
2007-10-22,-0.09, 0.71, 0.31, 1.98, 1.63, 7.36, repro,
2007-10-23,-0.37, 2.51, -1.47, 2.06, 1.73, 7.70, repro,
2007-10-24,-0.28, 3.02, -0.30, 2.07, 1.74, 7.77, repro,
2007-10-25,-0.41, 2.05, 1.98, 1.97, 1.63, 7.38, repro,
2007-10-26,-0.22, 2.33, 0.49, 2.01, 1.68, 7.49, repro,
2007-10-27,-0.17, 1.63, -4.86, 1.99, 1.64, 7.45, repro,
2007-10-28,-0.93, 3.00, -6.23, 2.04, 1.72, 7.65, repro,
2007-10-29,-0.56, 1.63, -2.01, 1.98, 1.63, 7.41, repro,
2007-10-30,0.41, 2.85, -0.77, 1.97, 1.62, 7.37, repro,
2007-10-31,-2.29, 4.43, 3.46, 1.97, 1.63, 7.36, repro,
2007-11-01,-0.46, 4.76, 0.38, 1.96, 1.60, 7.21, repro,
2007-11-02,-0.81, 3.58, 1.02, 1.94, 1.60, 7.15, repro,
2007-11-03,-0.71, 4.98, -1.44, 1.96, 1.61, 7.24, repro,
2007-11-04,-1.05, 5.22, 2.30, 1.94, 1.59, 7.17, repro,
2007-11-05,-1.86, 4.90, -0.12, 2.00, 1.69, 7.51, repro,
2007-11-06,-0.90, 4.56, -3.24, 1.94, 1.60, 7.17, repro,
2007-11-07,-1.13, 4.73, -3.79, 1.95, 1.60, 7.21, repro,
2007-11-08,-1.60, 4.54, 0.34, 1.99, 1.64, 7.33, repro,
2007-11-09,-0.68, 4.11, -4.73, 1.98, 1.63, 7.30, repro,
2007-11-10,-0.92, 3.15, -1.03, 1.92, 1.58, 7.14, repro,
2007-11-11,-0.90, 3.90, -0.25, 1.94, 1.59, 7.20, repro,
2007-11-12,-0.25, 4.71, -0.05, 1.95, 1.60, 7.21, repro,
2007-11-13,0.46, 3.58, -0.52, 1.95, 1.60, 7.24, repro,
2007-11-14,0.03, 4.71, -2.31, 1.97, 1.61, 7.32, repro,
2007-11-15,-0.16, 5.11, -2.74, 1.96, 1.60, 7.24, repro,
2007-11-16,-0.26, 2.88, -4.43, 1.93, 1.58, 7.18, repro,
2007-11-17,-1.08, 3.84, -2.30, 1.95, 1.61, 7.27, repro,
2007-11-18,0.81, 4.70, -5.45, 1.96, 1.61, 7.28, repro,
2007-11-19,0.47, 3.60, -0.77, 1.96, 1.61, 7.27, repro,
2007-11-20,0.10, 3.57, -8.55, 1.95, 1.64, 7.30, repro,
2007-11-21,-0.01, 2.82, -4.33, 2.01, 1.69, 7.45, repro,
2007-11-22,0.04, 3.18, -8.68, 1.94, 1.61, 7.26, repro,
2007-11-23,1.17, 4.19, 0.07, 2.05, 1.75, 7.60, repro,
2007-11-24,0.35, 3.64, -2.00, 2.02, 1.70, 7.39, repro,
2007-11-25,0.30, 3.99, 0.09, 2.02, 1.70, 7.42, repro,
2007-11-26,-0.42, 3.36, -7.64, 2.05, 1.72, 7.62, repro,
2007-11-27,-0.14, 4.91, -8.33, 2.03, 1.71, 7.57, repro,
2007-11-28,-0.58, 4.06, -2.75, 2.11, 1.74, 7.73, repro,
2007-11-29,-0.23, 3.96, -1.08, 2.07, 1.75, 7.74, repro,
2007-11-30,-0.25, 3.23, -1.58, 2.08, 1.75, 7.64, repro,
2007-12-01,0.31, 2.70, 0.71, 2.11, 1.81, 7.85, repro,
2007-12-02,0.45, 4.94, -2.30, 2.16, 1.83, 8.13, repro,
2007-12-03,-1.00, 4.53, -9.73, 2.10, 1.78, 8.00, repro,
2007-12-04,0.39, 4.59, -5.13, 2.11, 1.82, 7.93, repro,
2007-12-05,0.25, 3.69, -1.78, 2.29, 2.07, 8.82, repro,
2007-12-06,1.23, 4.55, 0.93, 2.21, 1.93, 8.53, repro,
2007-12-07,-0.63, 3.55, -1.62, 2.17, 1.91, 8.26, repro,
2007-12-08,-0.63, 3.75, 0.57, 2.11, 1.79, 7.78, repro,
2007-12-09,2.53, 6.58, -8.10, 2.34, 2.15, 9.00, repro,
2007-12-10,0.53, 2.82, -1.39, 2.05, 1.77, 7.63, repro,
2007-12-11,0.22, 3.28, -4.86, 2.12, 1.82, 7.84, repro,
2007-12-12,1.22, 3.31, -3.83, 2.15, 1.76, 7.99, repro,
2007-12-13,-0.13, 4.00, -2.15, 2.06, 1.70, 7.78, repro,
2007-12-14,-0.40, 4.37, -1.77, 2.02, 1.64, 7.54, repro,
2007-12-15,0.38, 4.92, 5.04, 2.01, 1.63, 7.50, repro,
2007-12-16,0.15, 4.95, -2.98, 2.01, 1.63, 7.43, repro,
2007-12-17,0.91, 5.11, 3.51, 2.00, 1.63, 7.43, repro,
2007-12-18,0.74, 4.15, 6.35, 2.00, 1.63, 7.47, repro,
2007-12-19,-0.94, 3.50, 0.29, 2.10, 1.70, 7.79, repro,
2007-12-20,-0.59, 2.50, 1.57, 2.01, 1.64, 7.48, repro,
2007-12-21,-0.71, 4.11, -7.55, 2.08, 1.70, 7.71, repro,
2007-12-22,1.05, 4.40, -2.87, 2.10, 1.74, 7.88, repro,
2007-12-23,-1.19, 5.54, 0.02, 2.06, 1.73, 7.76, repro,
2007-12-24,-1.28, 5.59, 6.34, 2.17, 1.88, 8.03, repro,
2007-12-25,-0.64, 4.00, -0.51, 2.02, 1.67, 7.54, repro,
2007-12-26,-0.84, 4.27, 3.07, 2.02, 1.66, 7.49, repro,
2007-12-27,0.60, 4.08, 1.69, 2.07, 1.69, 7.70, repro,
2007-12-28,0.91, 3.62, -1.27, 2.06, 1.68, 7.64, repro,
2007-12-29,-0.91, 4.79, 3.31, 2.04, 1.64, 7.53, repro,
2007-12-30,-0.99, 5.67, -5.07, 2.06, 1.70, 7.69, repro,
2007-12-31,-0.67, 5.39, -0.14, 2.00, 1.61, 7.35, repro,
2008-01-01,-0.04, 5.33, -9.79, 2.00, 1.61, 7.36, repro,
2008-01-02,0.44, 5.11, -3.34, 2.01, 1.60, 7.37, repro,
2008-01-03,-0.06, 3.81, 2.34, 2.02, 1.62, 7.49, repro,
2008-01-04,-0.39, 4.35, 7.36, 2.03, 1.62, 7.50, repro,
2008-01-05,-1.47, 3.30, 8.10, 1.98, 1.58, 7.29, repro,
2008-01-06,-1.06, 3.65, 0.87, 2.01, 1.64, 7.49, repro,
2008-01-07,-0.03, 4.87, -4.03, 1.98, 1.58, 7.34, repro,
2008-01-08,-2.34, 4.80, -2.54, 2.05, 1.61, 7.62, repro,
2008-01-09,-1.29, 5.57, -0.77, 2.05, 1.62, 7.53, repro,
2008-01-10,-0.97, 4.64, -4.41, 1.97, 1.58, 7.30, repro,
2008-01-11,-0.45, 4.98, -6.02, 1.98, 1.59, 7.32, repro,
2008-01-12,-0.60, 5.50, -7.55, 1.98, 1.60, 7.33, repro,
2008-01-13,-0.87, 5.94, -10.66, 1.98, 1.60, 7.33, repro,
2008-01-14,-1.11, 4.86, -3.46, 1.95, 1.58, 7.20, repro,
2008-01-15,-0.47, 5.53, -2.99, 1.96, 1.58, 7.22, repro,
2008-01-16,-0.68, 4.42, -3.64, 2.00, 1.60, 7.37, repro,
2008-01-17,-0.44, 5.02, -4.18, 2.01, 1.61, 7.38, repro,
2008-01-18,-2.14, 4.11, -6.20, 1.99, 1.64, 7.43, repro,
2008-01-19,-0.63, 5.56, -8.97, 1.96, 1.59, 7.23, repro,
2008-01-20,-0.82, 5.25, -8.71, 1.94, 1.57, 7.17, repro,
2008-01-21,-1.31, 5.56, -6.34, 1.95, 1.58, 7.20, repro,
2008-01-22,-1.52, 6.82, -9.78, 1.96, 1.59, 7.27, repro,
2008-01-23,0.25, 4.58, -11.26, 1.96, 1.59, 7.26, repro,
2008-01-24,-1.59, 5.59, -3.04, 1.95, 1.58, 7.20, repro,
2008-01-25,-1.14, 4.72, -4.23, 1.94, 1.59, 7.20, repro,
2008-01-26,-1.50, 4.34, 6.03, 1.94, 1.58, 7.21, repro,
2008-01-27,-1.45, 3.30, 4.66, 1.97, 1.65, 7.39, repro,
2008-01-28,-1.93, 6.06, 2.11, 1.99, 1.60, 7.31, repro,
2008-01-29,-1.42, 6.17, -4.08, 2.05, 1.70, 7.58, repro,
2008-01-30,-1.68, 5.21, -3.13, 2.06, 1.66, 7.60, repro,
2008-01-31,-1.40, 5.97, -10.05, 1.95, 1.60, 7.26, repro,
2008-02-01,-0.77, 6.35, -8.33, 1.94, 1.59, 7.20, repro,
2008-02-02,-1.58, 6.26, -7.66, 1.94, 1.59, 7.19, repro,
2008-02-03,-1.05, 7.57, -8.68, 1.96, 1.60, 7.29, repro,
2008-02-04,-2.41, 4.77, -0.58, 1.95, 1.59, 7.21, repro,
2008-02-05,-0.76, 4.28, -3.84, 1.98, 1.66, 7.44, repro,
2008-02-06,-0.73, 6.54, -7.85, 1.98, 1.66, 7.43, repro,
2008-02-07,-0.38, 6.07, -9.39, 1.97, 1.62, 7.36, repro,
2008-02-08,-0.86, 6.00, -4.36, 1.96, 1.59, 7.29, repro,
2008-02-09,-2.17, 6.91, -6.33, 1.96, 1.60, 7.27, repro,
2008-02-10,-1.27, 6.12, -1.83, 1.95, 1.59, 7.26, repro,
2008-02-11,-1.67, 6.58, -0.90, 1.93, 1.58, 7.18, repro,
2008-02-12,-1.71, 6.82, -3.83, 1.94, 1.58, 7.20, repro,
2008-02-13,-2.66, 5.66, -1.63, 1.95, 1.59, 7.24, repro,
2008-02-14,-1.59, 5.28, -6.31, 1.95, 1.59, 7.25, repro,
2008-02-15,-0.92, 5.72, -6.22, 1.99, 1.64, 7.37, repro,
2008-02-16,-2.74, 5.53, -0.26, 1.94, 1.58, 7.18, repro,
2008-02-17,-2.85, 6.08, -1.33, 1.96, 1.62, 7.37, repro,
2008-02-18,-3.07, 6.41, 0.04, 1.94, 1.59, 7.25, repro,
2008-02-19,-2.42, 5.54, -4.62, 1.96, 1.59, 7.27, repro,
2008-02-20,-2.19, 5.66, -7.85, 1.94, 1.60, 7.25, repro,
2008-02-21,-2.91, 5.53, -1.32, 1.95, 1.58, 7.23, repro,
2008-02-22,-2.48, 4.62, -1.29, 1.93, 1.59, 7.16, repro,
2008-02-23,-2.34, 5.08, 1.05, 1.94, 1.59, 7.21, repro,
2008-02-24,-2.55, 6.03, 3.85, 2.00, 1.66, 7.47, repro,
2008-02-25,-1.86, 6.01, -6.56, 1.97, 1.61, 7.37, repro,
2008-02-26,-2.48, 5.70, -12.79, 1.96, 1.60, 7.27, repro,
2008-02-27,-1.89, 5.36, -4.68, 2.02, 1.69, 7.62, repro,
2008-02-28,-1.86, 5.93, -8.47, 2.00, 1.68, 7.59, repro,
2008-02-29,-2.90, 5.81, -5.53, 1.98, 1.63, 7.36, repro,
2008-03-01,-1.74, 5.85, -0.40, 1.96, 1.60, 7.32, repro,
2008-03-02,-4.04, 5.02, -8.77, 1.98, 1.63, 7.37, repro,
2008-03-03,-1.80, 4.79, -3.69, 1.95, 1.58, 7.23, repro,
2008-03-04,-1.68, 6.21, -5.12, 1.95, 1.59, 7.24, repro,
2008-03-05,-1.26, 5.64, -6.44, 2.01, 1.69, 7.62, repro,
2008-03-06,-2.07, 4.90, -7.54, 2.01, 1.68, 7.68, repro,
2008-03-07,-1.98, 5.45, -9.06, 1.96, 1.59, 7.30, repro,
2008-03-08,-2.19, 6.01, -0.58, 1.99, 1.63, 7.52, repro,
2008-03-09,-1.07, 5.52, -8.40, 1.99, 1.63, 7.55, repro,
2008-03-10,-1.17, 6.15, -4.63, 1.94, 1.58, 7.21, repro,
2008-03-11,-2.22, 5.87, -2.91, 1.94, 1.59, 7.23, repro,
2008-03-12,-1.88, 4.81, -3.67, 1.98, 1.62, 7.44, repro,
2008-03-13,-1.00, 5.41, -2.05, 1.99, 1.63, 7.48, repro,
2008-03-14,-1.71, 4.62, -3.08, 1.99, 1.64, 7.53, repro,
2008-03-15,-2.08, 4.22, -7.51, 1.93, 1.58, 7.14, repro,
2008-03-16,-0.01, 5.40, -0.04, 2.06, 1.72, 7.92, repro,
2008-03-17,-1.05, 6.14, -0.54, 2.12, 1.84, 8.35, repro,
2008-03-18,-1.48, 5.12, -5.79, 2.04, 1.70, 7.72, repro,
2008-03-19,-2.41, 5.09, -4.66, 2.00, 1.63, 7.47, repro,
2008-03-20,-1.96, 6.64, -6.12, 2.00, 1.63, 7.45, repro,
2008-03-21,-1.16, 4.90, -10.03, 1.98, 1.61, 7.38, repro,
2008-03-22,-1.58, 4.91, -8.10, 1.99, 1.63, 7.47, repro,
2008-03-23,-2.29, 4.53, -7.73, 1.98, 1.62, 7.42, repro,
2008-03-24,-1.62, 5.07, -6.93, 2.00, 1.62, 7.43, repro,
2008-03-25,-2.17, 5.29, -6.26, 2.03, 1.68, 7.60, repro,
2008-03-26,-1.70, 3.66, -8.23, 2.02, 1.66, 7.51, repro,
2008-03-27,-2.77, 4.67, -8.43, 2.01, 1.65, 7.50, repro,
2008-03-28,-1.94, 3.41, -6.57, 1.98, 1.62, 7.36, repro,
2008-03-29,-3.07, 4.76, 1.09, 1.99, 1.59, 7.35, repro,
2008-03-30,-0.98, 4.79, -8.74, 1.98, 1.59, 7.34, repro,
2008-03-31,-1.38, 6.00, -9.16, 1.97, 1.59, 7.30, repro,
2008-04-01,-2.41, 4.28, -2.96, 1.98, 1.59, 7.39, repro,
2008-04-02,-3.45, 4.80, -3.08, 2.02, 1.59, 7.49, repro,
2008-04-03,-1.54, 4.10, -4.78, 1.97, 1.57, 7.28, repro,
2008-04-04,-2.01, 6.11, -7.44, 1.98, 1.58, 7.34, repro,
2008-04-05,-1.87, 5.91, -2.76, 1.98, 1.59, 7.32, repro,
2008-04-06,-1.37, 4.78, -4.98, 1.99, 1.59, 7.35, repro,
2008-04-07,-2.50, 4.22, 2.10, 2.00, 1.63, 7.52, repro,
2008-04-08,-1.92, 2.78, -1.36, 1.98, 1.58, 7.37, repro,
2008-04-09,-1.64, 4.15, -8.57, 1.98, 1.58, 7.34, repro,
2008-04-10,-1.17, 6.25, -3.03, 1.97, 1.58, 7.29, repro,
2008-04-11,-1.28, 5.10, -2.95, 1.99, 1.59, 7.35, repro,
2008-04-12,-1.90, 3.85, -4.68, 1.98, 1.58, 7.37, repro,
2008-04-13,-2.10, 3.91, -2.66, 1.98, 1.59, 7.42, repro,
2008-04-14,-2.64, 5.09, 5.79, 1.98, 1.58, 7.39, repro,
2008-04-15,-0.93, 3.42, -1.49, 2.01, 1.64, 7.46, repro,
2008-04-16,-2.54, 4.46, 1.03, 2.02, 1.64, 7.49, repro,
2008-04-17,-2.44, 3.69, -1.60, 1.99, 1.58, 7.33, repro,
2008-04-18,-2.11, 5.18, 0.35, 2.02, 1.64, 7.61, repro,
2008-04-19,-2.57, 4.51, -2.85, 1.98, 1.58, 7.37, repro,
2008-04-20,-2.10, 4.97, 0.43, 2.01, 1.62, 7.53, repro,
2008-04-21,-2.85, 6.59, -0.20, 1.97, 1.58, 7.33, repro,
2008-04-22,-3.10, 5.41, -2.14, 2.01, 1.59, 7.43, repro,
2008-04-23,-1.54, 5.31, -6.13, 2.12, 1.67, 7.96, repro,
2008-04-24,-0.45, 6.00, -5.14, 2.01, 1.62, 7.58, repro,
2008-04-25,-2.28, 4.64, -4.85, 1.99, 1.58, 7.40, repro,
2008-04-26,-1.61, 5.82, -8.12, 2.05, 1.61, 7.56, repro,
2008-04-27,-2.24, 4.82, -2.52, 2.09, 1.62, 7.64, repro,
2008-04-28,-3.17, 4.06, -1.36, 2.08, 1.61, 7.62, repro,
2008-04-29,-1.93, 6.60, -1.45, 2.13, 1.61, 7.71, repro,
2008-04-30,-1.28, 4.71, 1.18, 2.12, 1.65, 7.69, repro,
2008-05-01,-1.23, 6.29, -3.07, 2.04, 1.62, 7.52, repro,
2008-05-02,-1.85, 5.93, 0.44, 2.06, 1.64, 7.56, repro,
2008-05-03,-2.72, 4.71, 2.39, 2.05, 1.61, 7.51, repro,
2008-05-04,-2.99, 5.44, 2.45, 2.01, 1.58, 7.44, repro,
2008-05-05,-2.07, 4.98, -0.81, 2.02, 1.60, 7.45, repro,
2008-05-06,-2.20, 3.50, 1.48, 2.03, 1.61, 7.50, repro,
2008-05-07,-1.21, 5.49, -2.47, 2.03, 1.62, 7.51, repro,
2008-05-08,-2.85, 4.92, 1.62, 2.18, 1.70, 7.97, repro,
2008-05-09,-2.47, 6.22, 2.89, 2.04, 1.60, 7.46, repro,
2008-05-10,-2.76, 5.99, 2.01, 2.04, 1.61, 7.53, repro,
2008-05-11,-1.70, 4.58, 8.46, 2.02, 1.60, 7.44, repro,
2008-05-12,-2.46, 5.09, 2.92, 2.03, 1.61, 7.52, repro,
2008-05-13,-3.58, 5.34, 3.26, 2.04, 1.61, 7.50, repro,
2008-05-14,-2.63, 2.70, 7.45, 2.02, 1.59, 7.41, repro,
2008-05-15,-2.26, 3.87, -1.12, 2.02, 1.57, 7.37, repro,
2008-05-16,-2.39, 5.52, -1.14, 2.02, 1.58, 7.44, repro,
2008-05-17,-3.07, 5.51, 2.38, 2.03, 1.60, 7.46, repro,
2008-05-18,-2.92, 5.24, -0.42, 2.04, 1.62, 7.54, repro,
2008-05-19,-3.00, 5.06, 1.52, 2.00, 1.59, 7.42, repro,
2008-05-20,-2.95, 4.30, -2.53, 2.03, 1.61, 7.47, repro,
2008-05-21,-0.92, 4.37, 8.66, 2.00, 1.58, 7.41, repro,
2008-05-22,0.20, 5.46, 7.83, 2.01, 1.63, 7.54, repro,
2008-05-23,-3.21, 5.26, 8.29, 2.01, 1.63, 7.58, repro,
2008-05-24,-2.07, 5.34, -2.60, 1.98, 1.59, 7.40, repro,
2008-05-25,-2.38, 5.54, -0.66, 2.02, 1.64, 7.54, repro,
2008-05-26,-2.72, 5.51, 2.29, 2.01, 1.62, 7.46, repro,
2008-05-27,-2.67, 5.90, 1.85, 2.00, 1.58, 7.40, repro,
2008-05-28,-1.67, 6.11, -2.31, 2.00, 1.58, 7.40, repro,
2008-05-29,-2.58, 6.19, -5.81, 2.04, 1.64, 7.57, repro,
2008-05-30,-2.15, 7.00, 2.66, 1.98, 1.57, 7.32, repro,
2008-05-31,-1.55, 5.93, 0.74, 1.99, 1.57, 7.33, repro,
2008-06-01,-1.45, 6.04, -1.85, 1.99, 1.57, 7.36, repro,
2008-06-02,-1.14, 5.58, 3.60, 1.98, 1.57, 7.32, repro,
2008-06-03,-0.25, 4.30, -1.43, 2.07, 1.66, 7.77, repro,
2008-06-04,-2.33, 5.13, 5.78, 1.98, 1.58, 7.32, repro,
2008-06-05,-2.54, 6.08, 8.42, 1.98, 1.57, 7.31, repro,
2008-06-06,-0.86, 5.60, 6.36, 2.02, 1.60, 7.45, repro,
2008-06-07,-2.10, 4.85, 11.76, 2.09, 1.68, 7.71, repro,
2008-06-08,-1.98, 6.14, 1.89, 2.05, 1.62, 7.50, repro,
2008-06-09,-2.81, 5.58, 1.46, 2.05, 1.62, 7.49, repro,
2008-06-10,-1.58, 5.52, 5.25, 1.99, 1.57, 7.32, repro,
2008-06-11,-2.99, 5.93, 4.78, 1.99, 1.57, 7.30, repro,
2008-06-12,-2.42, 6.11, 3.80, 2.02, 1.59, 7.42, repro,
2008-06-13,-1.33, 6.20, 0.33, 1.99, 1.58, 7.35, repro,
2008-06-14,-1.77, 4.98, 3.19, 2.05, 1.60, 7.43, repro,
2008-06-15,-0.79, 7.00, -0.17, 2.12, 1.67, 7.80, repro,
2008-06-16,-2.39, 5.69, 1.85, 1.99, 1.57, 7.32, repro,
2008-06-17,-1.19, 5.64, 1.44, 1.98, 1.56, 7.23, repro,
2008-06-18,-1.50, 7.10, 4.47, 2.07, 1.61, 7.54, repro,
2008-06-19,-1.66, 6.68, 2.25, 2.07, 1.69, 7.83, repro,
2008-06-20,-2.14, 5.68, 2.74, 1.99, 1.56, 7.31, repro,
2008-06-21,-1.26, 5.05, -1.66, 2.03, 1.61, 7.56, repro,
2008-06-22,-2.44, 4.83, -2.88, 1.99, 1.57, 7.30, repro,
2008-06-23,-1.79, 6.19, 2.44, 2.00, 1.57, 7.34, repro,
2008-06-24,-2.39, 5.96, 1.90, 2.03, 1.63, 7.49, repro,
2008-06-25,-2.92, 6.52, 4.09, 2.00, 1.55, 7.26, repro,
2008-06-26,-1.17, 5.43, 5.17, 2.06, 1.72, 7.74, repro,
2008-06-27,-2.62, 6.16, 4.61, 1.99, 1.57, 7.29, repro,
2008-06-28,-0.99, 6.03, -0.02, 2.02, 1.61, 7.42, repro,
2008-06-29,-1.04, 5.85, 0.74, 2.04, 1.63, 7.51, repro,
2008-06-30,-0.58, 6.28, -1.76, 2.00, 1.56, 7.29, repro,
2008-07-01,-1.58, 5.80, 0.72, 2.04, 1.65, 7.54, repro,
2008-07-02,-2.24, 5.98, 1.75, 1.99, 1.56, 7.25, repro,
2008-07-03,-2.33, 5.92, 3.39, 2.01, 1.57, 7.33, repro,
2008-07-04,-0.54, 6.56, 5.53, 2.00, 1.56, 7.35, repro,
2008-07-05,0.07, 6.75, 4.65, 2.00, 1.57, 7.35, repro,
2008-07-06,-1.60, 5.20, 8.52, 1.99, 1.56, 7.27, repro,
2008-07-07,-1.14, 6.04, 12.80, 2.03, 1.64, 7.49, repro,
2008-07-08,-1.09, 5.55, 5.98, 2.00, 1.57, 7.32, repro,
2008-07-09,-2.06, 6.43, 6.55, 2.09, 1.68, 7.82, repro,
2008-07-10,-1.04, 6.12, 3.70, 2.07, 1.60, 7.49, repro,
2008-07-11,-1.68, 5.10, 6.78, 2.08, 1.66, 7.54, repro,
2008-07-12,-2.89, 6.20, 3.90, 1.98, 1.56, 7.22, repro,
2008-07-13,-1.38, 7.00, 0.51, 2.05, 1.69, 7.57, repro,
2008-07-14,-2.44, 6.72, 9.50, 2.05, 1.63, 7.51, repro,
2008-07-15,-1.91, 6.64, 2.13, 2.01, 1.57, 7.40, repro,
2008-07-16,-1.51, 5.29, 4.91, 2.00, 1.56, 7.30, repro,